Date String (YYYY-MM-DD hh:mm:ss) UTC,Instrument flags,absolute air pressure of the measurement (hPa),sample flow rate (lpm),inlet stack bypass flow (lpm),air temperature of the measurement (°C),ambient temperature measured by the external sensor (°C),aerosol sample conditioner tube jacket temperature (°C),OPC LED temperature (°C),internal box temperature (°C),relative humidity of the measurement (%),span deviation,mass concentration of particles derived from Lorenz-Mie calculation of OPC scattering (μg/m³),mass concentration of particles derived from Lorenz-Mie calculation of OPC scattering (μg/m³),mass concentration of particles derived from Lorenz-Mie calculation of OPC scattering (μg/m³)
DateTimeUTC,F1_M11,P_M11,Q1_M11,Q2_M11,T1_M11,T2_M11,T3_M11,T4_M11,T5_M11,U1_M11,ZSPAN_M11,X2_M11,X0_M11,X1_M11
2023-12-11 21:00:00,SystemResetWarning,0830.3,5.00,000.00,026.1,025.4,000.0,034.3,027.5,13.6,0000.0,0005.33,0011.54,0004.66
2023-12-11 21:01:00,SystemResetWarning,0830.2,5.00,000.00,026.1,025.4,000.0,034.3,027.5,13.7,0000.0,0005.38,0011.78,0004.68
2023-12-11 21:02:00,SystemResetWarning,0830.2,5.00,000.00,026.1,025.4,000.0,034.3,027.5,13.8,0000.0,0005.39,0011.73,0004.71
2023-12-11 21:03:00,SystemResetWarning,0830.2,5.00,000.00,026.1,025.4,000.0,034.3,027.5,13.9,0000.0,0005.40,0011.36,0004.73
2023-12-11 21:04:00,SystemResetWarning,0830.2,5.00,000.00,026.1,025.4,000.0,034.3,027.5,13.5,0000.0,0005.42,0011.49,0004.73
2023-12-11 21:05:00,SystemResetWarning,0830.1,5.00,000.00,026.2,025.4,000.0,034.3,027.5,13.5,0000.0,0005.40,0011.32,0004.74
2023-12-11 21:06:00,SystemResetWarning,0830.2,5.00,000.00,026.2,025.4,000.0,034.3,027.5,13.5,0000.0,0005.42,0010.91,0004.74
2023-12-11 21:07:00,SystemResetWarning,0830.2,5.01,000.00,026.2,025.4,000.0,034.3,027.5,13.6,0000.0,0005.40,0011.14,0004.73
2023-12-11 21:08:00,SystemResetWarning,0830.2,5.00,000.00,026.2,025.4,000.0,034.3,027.6,13.4,0000.0,0005.36,0010.88,0004.72
2023-12-11 21:09:00,SystemResetWarning,0830.2,5.01,000.00,026.2,025.4,000.0,034.3,027.6,13.5,0000.0,0005.37,0011.64,0004.73
2023-12-11 21:10:00,SystemResetWarning,0830.3,5.00,000.00,026.2,025.4,000.0,034.4,027.6,13.5,0000.0,0005.38,0012.67,0004.73
2023-12-11 21:11:00,SystemResetWarning,0830.2,5.00,000.00,026.2,025.4,000.0,034.4,027.6,13.6,0000.0,0005.39,0012.30,0004.73
2023-12-11 21:12:00,SystemResetWarning,0830.2,4.99,000.00,026.2,025.4,000.0,034.4,027.6,13.6,0000.0,0005.42,0012.80,0004.75
2023-12-11 21:13:00,SystemResetWarning,0830.2,4.99,000.00,026.2,025.4,000.0,034.4,027.5,13.4,0000.0,0005.43,0013.37,0004.75
2023-12-11 21:14:00,SystemResetWarning,0830.2,5.00,000.00,026.2,025.4,000.0,034.4,027.5,13.5,0000.0,0005.42,0013.57,0004.76
2023-12-11 21:15:00,SystemResetWarning,0830.3,5.01,000.00,026.2,025.3,000.0,034.4,027.5,13.7,0000.0,0005.39,0013.43,0004.77
2023-12-11 21:16:00,SystemResetWarning,0830.2,5.01,000.00,026.2,025.3,000.0,034.4,027.5,13.7,0000.0,0005.38,0013.35,0004.77
2023-12-11 21:17:00,SystemResetWarning,0830.2,5.00,000.00,026.2,025.3,000.0,034.4,027.5,13.5,0000.0,0005.37,0013.09,0004.78
2023-12-11 21:18:00,SystemResetWarning,0830.2,5.00,000.00,026.2,025.3,000.0,034.4,027.5,13.5,0000.0,0005.43,0012.91,0004.79
2023-12-11 21:19:00,SystemResetWarning,0830.2,5.00,000.00,026.2,025.3,000.0,034.4,027.5,13.5,0000.0,0005.46,0012.98,0004.80
2023-12-11 21:20:00,SystemResetWarning,0830.1,5.00,000.00,026.2,025.3,000.0,034.4,027.5,13.4,0000.0,0005.47,0012.65,0004.81
2023-12-11 21:21:00,SystemResetWarning,0830.2,5.00,000.00,026.2,025.3,000.0,034.4,027.5,13.6,0000.0,0005.47,0011.83,0004.83
2023-12-11 21:22:00,SystemResetWarning,0830.2,4.99,000.00,026.2,025.3,000.0,034.4,027.5,13.7,0000.0,0005.43,0012.12,0004.82
2023-12-11 21:23:00,SystemResetWarning,0830.3,5.00,000.00,026.2,025.3,000.0,034.5,027.5,13.6,0000.0,0005.41,0011.57,0004.82
2023-12-11 21:24:00,SystemResetWarning,0830.2,5.00,000.00,026.2,025.3,000.0,034.5,027.5,13.6,0000.0,0005.42,0010.93,0004.81
2023-12-11 21:25:00,SystemResetWarning,0830.2,5.01,000.00,026.2,025.3,000.0,034.5,027.5,13.8,0000.0,0005.45,0011.34,0004.81
2023-12-11 21:26:00,SystemResetWarning,0830.2,5.01,000.00,026.2,025.3,000.0,034.5,027.5,14.0,0000.0,0005.49,0011.77,0004.81
2023-12-11 21:27:00,SystemResetWarning,0830.2,5.01,000.00,026.2,025.3,000.0,034.5,027.5,13.6,0000.0,0005.51,0011.82,0004.81
2023-12-11 21:28:00,SystemResetWarning,0830.2,5.00,000.00,026.2,025.3,000.0,034.5,027.5,13.5,0000.0,0005.57,0012.10,0004.82
2023-12-11 21:29:00,SystemResetWarning,0830.2,5.00,000.00,026.2,025.2,000.0,034.5,027.5,13.5,0000.0,0005.56,0012.26,0004.83
2023-12-11 21:30:00,SystemResetWarning,0830.2,5.00,000.00,026.2,025.2,000.0,034.5,027.5,13.5,0000.0,0005.55,0012.05,0004.84
2023-12-11 21:31:00,SystemResetWarning,0830.2,5.00,000.00,026.2,025.2,000.0,034.5,027.5,13.6,0000.0,0005.58,0012.10,0004.85
2023-12-11 21:32:00,SystemResetWarning,0830.2,5.00,000.00,026.2,025.2,000.0,034.5,027.5,13.7,0000.0,0005.60,0011.73,0004.86
2023-12-11 21:33:00,SystemResetWarning,0830.2,4.99,000.00,026.1,025.2,000.0,034.5,027.4,13.6,0000.0,0005.63,0011.18,0004.87
2023-12-11 21:34:00,SystemResetWarning,0830.2,5.00,000.00,026.1,025.2,000.0,034.5,027.4,13.4,0000.0,0005.65,0011.19,0004.88
2023-12-11 21:35:00,SystemResetWarning,0830.2,5.00,000.00,026.1,025.1,000.0,034.5,027.5,13.5,0000.0,0005.67,0011.24,0004.89
2023-12-11 21:36:00,SystemResetWarning,0830.2,5.00,000.00,026.1,025.1,000.0,034.4,027.4,13.5,0000.0,0005.65,0011.14,0004.90
2023-12-11 21:37:00,SystemResetWarning,0830.2,5.00,000.00,026.1,025.1,000.0,034.5,027.4,13.6,0000.0,0005.66,0010.34,0004.91
2023-12-11 21:38:00,SystemResetWarning,0830.2,5.00,000.00,026.1,025.1,000.0,034.4,027.4,13.6,0000.0,0005.63,0010.06,0004.92
2023-12-11 21:39:00,SystemResetWarning,0830.2,5.00,000.00,026.1,025.1,000.0,034.4,027.4,13.9,0000.0,0005.62,0010.06,0004.93
2023-12-11 21:40:00,SystemResetWarning,0830.2,5.00,000.00,026.1,025.1,000.0,034.4,027.4,13.9,0000.0,0005.62,0009.72,0004.93
2023-12-11 21:41:00,SystemResetWarning,0830.2,5.00,000.00,026.1,025.1,000.0,034.4,027.4,13.7,0000.0,0005.63,0009.73,0004.93
2023-12-11 21:42:00,SystemResetWarning,0830.2,4.99,000.00,026.1,025.1,000.0,034.4,027.4,13.7,0000.0,0005.62,0009.73,0004.93
2023-12-11 21:43:00,SystemResetWarning,0830.2,4.99,000.00,026.1,025.1,000.0,034.4,027.4,13.8,0000.0,0005.59,0009.67,0004.93
2023-12-11 21:44:00,SystemResetWarning,0830.2,4.99,000.00,026.1,025.1,000.0,034.4,027.4,13.8,0000.0,0005.58,0010.07,0004.93
2023-12-11 21:45:00,SystemResetWarning,0830.2,5.00,000.00,026.1,025.1,000.0,034.4,027.3,13.8,0000.0,0005.58,0010.69,0004.93
2023-12-11 21:46:00,SystemResetWarning,0830.2,5.01,000.00,026.1,025.1,000.0,034.4,027.4,13.7,0000.0,0005.58,0011.42,0004.93
2023-12-11 21:47:00,SystemResetWarning,0830.2,5.01,000.00,026.1,025.1,000.0,034.4,027.4,13.7,0000.0,0005.63,0011.81,0004.94
2023-12-11 21:48:00,SystemResetWarning,0830.2,5.01,000.00,026.1,025.1,000.0,034.4,027.4,13.9,0000.0,0005.64,0012.29,0004.97
2023-12-11 21:49:00,SystemResetWarning,0830.2,5.00,000.00,026.1,025.1,000.0,034.4,027.4,14.0,0000.0,0005.63,0012.29,0004.98
2023-12-11 21:50:00,SystemResetWarning,0830.3,5.00,000.00,026.1,025.2,000.0,034.4,027.4,14.0,0000.0,0005.63,0012.34,0004.99
2023-12-11 21:51:00,SystemResetWarning,0830.3,5.00,000.00,026.1,025.2,000.0,034.4,027.4,14.0,0000.0,0005.62,0012.40,0005.00
2023-12-11 21:52:00,SystemResetWarning,0830.2,5.00,000.00,026.1,025.2,000.0,034.4,027.4,14.0,0000.0,0005.61,0012.37,0005.02
2023-12-11 21:53:00,SystemResetWarning,0830.2,5.00,000.00,026.1,025.2,000.0,034.4,027.4,14.1,0000.0,0005.61,0012.35,0005.03
2023-12-11 21:54:00,SystemResetWarning,0830.2,5.00,000.00,026.1,025.2,000.0,034.4,027.4,13.8,0000.0,0005.65,0012.37,0005.06
2023-12-11 21:55:00,SystemResetWarning,0830.2,5.00,000.00,026.1,025.2,000.0,034.4,027.4,13.9,0000.0,0005.70,0012.13,0005.10
2023-12-11 21:56:00,SystemResetWarning,0830.2,5.00,000.00,026.1,025.2,000.0,034.4,027.4,13.9,0000.0,0005.77,0011.59,0005.17
2023-12-11 21:57:00,SystemResetWarning,0830.2,5.00,000.00,026.1,025.2,000.0,034.4,027.4,14.0,0000.0,0005.90,0011.07,0005.24
2023-12-11 21:58:00,SystemResetWarning,0830.2,5.00,000.00,026.1,025.2,000.0,034.4,027.4,14.1,0000.0,0005.93,0011.12,0005.29
2023-12-11 21:59:00,SystemResetWarning,0830.2,4.99,000.00,026.1,025.2,000.0,034.4,027.4,14.3,0000.0,0005.95,0010.84,0005.32
